Wind_Speed
51 51 52 52 51 51 52 52 52 52 51 51 51 51 51 52 51 52 52 52 52 51 51 50 50 50 50 50 49 49 49 49 49 49 48 47 47 46
51 50 51 51 51 52 53 53 52 52 52 51 52 52 52 52 52 52 52 51 50 50 50 50 50 51 50 49 49 48 48 48 48 48 48 48 47 46
52 51 52 52 52 52 52 52 52 52 51 51 51 52 52 51 51 51 50 50 49 49 49 49 50 49 48 47 47 47 47 47 48 48 48 47 46 46
53 53 53 53 52 52 52 51 51 52 52 51 50 50 51 50 50 50 50 50 49 49 49 49 48 48 47 46 47 47 47 47 48 47 47 46 46 46
52 53 53 52 51 51 51 51 51 51 50 50 49 50 50 50 49 50 50 49 49 49 49 48 48 47 46 47 47 47 47 47 47 46 45 45 44 43
50 50 51 51 50 50 50 50 50 50 49 49 49 49 49 49 49 48 48 48 48 48 47 46 46 46 47 46 46 46 46 46 45 44 43 42 41 41
48 48 49 49 48 49 49 50 49 49 49 48 48 49 48 48 48 48 47 47 47 47 46 45 45 45 45 45 45 45 44 43 42 42 41 41 40 39
46 46 46 46 47 47 48 48 49 49 48 48 48 48 47 47 47 47 46 46 45 44 44 43 43 43 43 43 43 42 42 40 39 39 37 38 38 37
43 43 43 43 44 44 45 46 47 47 47 47 46 46 46 46 46 46 46 45 44 43 42 41 41 41 41 40 40 39 38 37 36 35 35 34 34 35
39 40 40 41 41 42 42 43 43 44 44 43 43 43 43 43 44 44 43 43 42 40 40 40 40 39 39 38 37 36 35 34 33 32 32 32 32 33
35 37 38 39 38 39 39 40 40 40 39 39 39 39 39 40 40 41 40 40 38 37 38 38 37 37 37 36 36 34 34 33 32 32 32 32 31 31
33 34 35 35 35 35 36 36 36 36 36 36 36 36 36 37 37 37 37 37 36 35 35 35 34 34 33 33 34 33 33 32 32 31 31 31 31 31
31 31 31 32 34 33 33 33 34 34 33 33 33 33 33 34 34 34 34 34 34 33 33 33 32 32 31 30 31 31 31 31 30 30 29 29 28 28
30 30 29 29 29 31 30 31 31 30 30 30 31 30 30 31 31 31 31 31 31 31 31 31 30 30 29 29 29 29 29 28 28 27 27 27 27 26
28 28 28 28 27 27 27 28 28 28 29 29 29 29 29 29 29 28 28 28 28 28 28 27 27 27 27 27 27 27 26 26 26 26 25 25 25 24
25 26 26 26 26 26 26 26 26 27 27 27 27 27 27 27 26 26 25 25 25 25 24 24 24 24 24 24 25 25 24 24 24 24 24 23 22 22
23 23 24 24 24 24 24 25 26 26 25 25 25 25 25 24 23 22 22 22 22 22 21 21 21 21 22 22 22 22 21 21 21 21 21 21 21 21
21 21 21 21 21 21 21 22 23 23 23 23 23 22 21 20 20 19 19 19 19 19 19 19 19 19 20 20 19 18 18 18 18 18 19 19 19 19
19 19 19 19 18 18 19 19 20 20 20 19 19 18 17 17 17 17 17 17 17 17 16 16 17 18 18 17 16 16 15 15 15 15 15 16 15 14
17 17 16 15 15 16 16 17 17 17 16 16 16 15 15 15 14 14 15 15 15 15 14 14 15 15 14 13 13 13 13 13 13 12 12 12 12 12
16 15 15 15 15 15 15 15 15 15 14 14 13 13 13 13 13 13 13 14 14 13 13 13 13 13 12 12 11 11 12 12 12 11 11 11 11 11
14 14 14 14 14 15 15 14 14 14 13 13 12 12 12 11 11 11 12 12 11 12 12 13 13 12 11 11 11 11 11 11 10 10 10 11 11 11
13 13 13 14 14 14 14 14 13 13 12 12 12 11 11 11 11 11 11 10 10 10 10 11 11 10 10 10 10 10 10 10 10 10 10 10 10 10
Wind_Direction
265 265 266 267 269 269 270 271 272 272 273 274 274 275 275 276 276 277 278 279 280 280 281 282 282 282 283 283 282 280 281 281 281 281 281 282 282 281
266 265 266 268 269 269 270 271 272 273 273 273 273 274 274 275 276 277 278 279 279 280 281 281 282 283 282 282 281 281 280 280 280 281 282 282 282 281
265 265 266 267 269 270 270 271 272 273 273 272 273 273 273 275 276 276 277 277 278 280 280 281 281 282 282 281 280 281 280 280 280 281 282 282 281 280
264 265 267 268 269 269 270 271 272 272 273 272 272 273 274 276 277 276 277 278 279 280 281 281 281 281 281 282 281 281 281 281 281 281 281 280 281 280
265 267 268 268 269 270 271 271 272 272 272 273 273 273 275 277 277 277 277 279 280 281 281 281 281 281 282 283 283 283 282 281 281 282 282 281 280 279
267 268 268 268 268 270 271 272 273 273 273 273 273 274 275 277 277 277 278 280 280 281 281 281 281 282 283 284 284 284 283 282 282 281 282 281 279 277
268 268 267 268 268 270 271 272 272 273 274 274 275 275 277 278 277 278 279 279 279 281 281 281 281 282 283 285 285 284 283 283 282 281 280 279 278 277
268 268 268 269 269 270 271 272 273 273 274 275 275 276 277 277 276 277 278 278 279 279 280 280 281 282 282 284 286 285 283 282 281 281 280 279 277 275
267 267 267 269 269 270 272 273 273 273 273 274 275 275 276 276 276 276 277 278 278 278 278 279 280 282 283 285 285 285 284 283 281 280 279 279 278 276
268 268 268 268 270 271 272 273 273 273 273 274 275 275 275 274 274 275 276 277 277 277 277 278 278 280 282 283 284 284 283 282 281 280 281 281 280 278
271 270 270 269 270 271 272 273 274 274 274 275 275 276 276 275 275 275 276 276 276 276 277 278 278 279 281 281 281 280 281 281 281 281 281 281 281 280
272 273 272 270 270 271 273 273 273 274 274 274 275 275 276 276 276 276 276 276 276 277 277 278 279 279 280 280 280 280 280 280 281 281 281 281 280 280
271 272 273 271 270 271 273 273 273 273 274 274 275 276 276 277 277 277 277 276 277 277 278 278 279 280 281 280 279 280 280 280 280 280 282 283 282 281
271 271 273 274 274 272 272 272 272 274 274 275 277 277 277 277 277 277 277 277 278 278 278 279 280 280 281 280 280 281 281 281 280 281 283 284 283 282
272 273 274 275 275 275 273 273 273 274 275 276 277 278 278 277 276 276 277 278 280 279 279 280 281 282 282 281 281 282 281 280 281 282 283 284 282 282
275 275 275 275 276 276 274 274 275 276 277 277 277 277 277 276 276 276 277 277 279 280 281 282 284 284 285 285 285 284 283 283 282 281 282 283 282 281
278 278 276 274 275 275 275 276 276 278 278 278 277 277 276 275 275 275 276 277 279 280 282 283 285 286 288 289 289 288 288 286 284 281 280 281 281 280
281 281 279 277 276 275 277 277 278 279 279 279 278 276 274 274 274 275 277 278 281 282 282 282 283 286 290 292 292 292 291 288 284 283 281 283 282 281
281 281 280 281 279 278 279 279 282 282 281 279 276 274 272 271 272 274 275 279 282 282 282 284 286 287 288 289 291 293 293 291 288 285 284 286 286 285
279 279 278 280 280 280 282 285 286 285 283 280 276 273 271 272 274 275 276 280 281 282 283 287 288 290 292 293 295 296 295 296 294 292 290 292 292 290
277 277 276 277 279 282 285 286 286 284 283 279 275 272 272 274 276 278 280 282 282 281 285 288 289 292 293 294 297 299 300 300 301 299 297 297 297 295
276 276 276 278 280 283 285 285 284 282 279 277 275 271 270 273 276 278 281 283 283 286 289 290 291 292 292 294 298 300 301 301 301 300 299 299 298 297
277 275 276 279 280 282 283 283 282 279 277 276 273 270 269 271 275 277 279 281 285 289 292 293 295 293 293 297 300 301 301 298 296 297 298 300 301 300
Height
5650 5651 5652 5653 5653 5654 5654 5654 5655 5655 5656 5656 5654 5652 5651 5650 5648 5647 5646 5645 5643 5642 5640 5638 5636 5634 5632 5630 5627 5626 5624 5622 5620 5619 5617 5615 5613 5611
5637 5638 5639 5640 5640 5640 5640 5640 5640 5640 5641 5642 5640 5639 5637 5636 5635 5634 5632 5631 5630 5628 5626 5625 5622 5620 5618 5616 5614 5612 5611 5609 5608 5606 5604 5602 5600 5598
5623 5624 5625 5625 5626 5626 5626 5626 5626 5625 5626 5627 5626 5624 5623 5622 5621 5619 5618 5617 5616 5615 5613 5611 5609 5607 5604 5603 5601 5599 5598 5596 5594 5593 5590 5588 5586 5585
5609 5610 5611 5611 5612 5612 5612 5612 5611 5611 5611 5612 5612 5610 5609 5608 5607 5606 5605 5603 5602 5601 5599 5597 5595 5593 5591 5589 5588 5586 5584 5582 5581 5579 5577 5576 5574 5571
5595 5596 5597 5598 5598 5598 5598 5598 5597 5597 5597 5597 5598 5597 5596 5594 5593 5592 5591 5590 5588 5587 5585 5583 5581 5579 5578 5576 5574 5572 5570 5569 5567 5565 5563 5561 5559 5558
5582 5583 5583 5584 5585 5585 5585 5584 5584 5583 5583 5583 5584 5583 5582 5581 5579 5579 5578 5577 5575 5573 5571 5570 5568 5566 5564 5562 5561 5559 5557 5555 5553 5551 5549 5548 5546 5545
5569 5569 5570 5570 5571 5571 5571 5571 5571 5570 5570 5570 5570 5570 5569 5567 5566 5565 5565 5564 5563 5560 5559 5557 5556 5554 5551 5549 5547 5545 5543 5541 5540 5538 5537 5535 5534 5533
5556 5556 5557 5557 5558 5558 5558 5558 5557 5557 5557 5557 5557 5556 5555 5554 5553 5552 5551 5551 5551 5549 5547 5546 5543 5541 5539 5537 5535 5532 5530 5529 5527 5526 5524 5523 5522 5521
5544 5544 5545 5545 5545 5545 5545 5544 5544 5544 5544 5544 5543 5543 5542 5541 5540 5540 5538 5538 5537 5536 5534 5534 5532 5530 5528 5525 5523 5521 5519 5517 5516 5515 5514 5512 5511 5511
5532 5532 5533 5533 5533 5533 5533 5532 5532 5531 5531 5531 5531 5530 5529 5528 5527 5527 5526 5525 5525 5523 5521 5522 5520 5518 5516 5514 5512 5510 5509 5507 5506 5505 5504 5503 5502 5501
5521 5521 5521 5522 5522 5522 5522 5521 5521 5520 5519 5519 5518 5518 5517 5516 5515 5514 5514 5513 5513 5513 5510 5509 5509 5507 5506 5504 5502 5500 5499 5498 5497 5496 5495 5494 5493 5492
5512 5512 5511 5511 5511 5511 5511 5510 5510 5509 5509 5508 5508 5507 5506 5505 5504 5503 5502 5502 5502 5502 5500 5499 5498 5496 5496 5495 5492 5491 5490 5489 5488 5487 5485 5484 5483 5482
5502 5502 5502 5501 5501 5501 5500 5500 5500 5499 5499 5498 5498 5497 5496 5495 5494 5493 5492 5492 5491 5491 5490 5489 5487 5486 5485 5485 5484 5482 5481 5480 5479 5478 5477 5475 5474 5474
5494 5493 5493 5492 5492 5491 5491 5491 5490 5490 5489 5489 5489 5488 5487 5486 5485 5484 5483 5482 5482 5481 5480 5478 5478 5477 5476 5475 5475 5474 5473 5471 5470 5469 5468 5467 5466 5465
5485 5485 5484 5484 5484 5483 5483 5482 5482 5481 5481 5480 5480 5479 5478 5477 5476 5475 5474 5474 5473 5472 5471 5470 5469 5468 5467 5467 5466 5465 5464 5464 5462 5461 5460 5459 5459 5458
5477 5477 5477 5476 5476 5476 5475 5475 5474 5473 5473 5472 5471 5470 5470 5469 5468 5467 5467 5466 5466 5465 5464 5463 5461 5460 5460 5459 5458 5457 5456 5455 5454 5453 5453 5452 5452 5451
5471 5470 5469 5469 5469 5468 5468 5467 5467 5466 5465 5464 5463 5463 5462 5462 5461 5461 5460 5460 5460 5459 5458 5457 5455 5454 5453 5452 5451 5450 5448 5447 5446 5446 5445 5445 5445 5445
5464 5464 5463 5463 5462 5461 5461 5460 5459 5459 5458 5457 5456 5456 5456 5455 5455 5455 5455 5454 5454 5453 5453 5451 5450 5449 5448 5447 5446 5444 5443 5442 5441 5440 5440 5439 5439 5439
5458 5458 5457 5457 5456 5455 5455 5454 5453 5452 5451 5451 5450 5450 5450 5450 5450 5450 5450 5449 5449 5448 5448 5446 5445 5444 5443 5442 5441 5440 5438 5437 5436 5436 5435 5434 5434 5434
5453 5452 5452 5451 5451 5450 5450 5449 5448 5447 5446 5446 5446 5445 5445 5445 5445 5445 5445 5445 5444 5444 5443 5442 5441 5440 5439 5438 5437 5436 5434 5433 5432 5431 5431 5430 5430 5430
5447 5447 5447 5447 5446 5446 5445 5444 5444 5443 5442 5442 5442 5442 5442 5442 5442 5442 5441 5441 5440 5440 5440 5439 5438 5437 5435 5434 5434 5433 5431 5430 5429 5428 5427 5427 5427 5426
5442 5442 5442 5442 5442 5441 5441 5440 5440 5439 5439 5439 5438 5438 5438 5438 5439 5438 5438 5438 5437 5437 5436 5435 5434 5433 5432 5432 5431 5430 5428 5427 5426 5425 5424 5424 5424 5423
5438 5438 5438 5438 5437 5437 5437 5436 5436 5436 5435 5435 5435 5435 5435 5436 5436 5435 5435 5435 5434 5434 5433 5432 5431 5430 5429 5429 5428 5427 5426 5425 5424 5423 5423 5421 5421 5420